Weather in Gari

Russia / Mari El Republic     56°37′40″N   48°01′49″E
temp.,
°C
wind,
m/s
gust,
m/s
humid.,
%
clouds,
%
prec.,
mm/h
press.,
hPa
HPBL,
m
17 august, wed
wed1700:00+17ene22725 0.0 102515
03:00+16ene22775 0.0 102613
06:00+18e127627 0.0 102554
09:00+23e33595 0.0 1025580
12:00+26ene22455 0.0 10241818
15:00+26ne434313 0.0 10231819
18:00+22ene36615 0.0 1023139
21:00+17e356610 0.0 102374
18 august, thu
thu1800:00+16e346845 0.0 102362
03:00+14e22736 0.0 102434
06:00+15ene25734 0.0 1024134
09:00+22e34500 0.0 1025578
12:00+25ene45450 0.0 10241451
15:00+25ene56460 0.0 10241723
18:00+22ene37600 0.0 1025297
21:00+17ene512550 0.0 1026365
19 august, fri
fri1900:00+13e310630 0.0 1028191
03:00+11e39650 0.0 1030166
06:00+12ese39650 0.0 1031224
09:00+19ese47410 0.0 1032818
12:00+22ese57331 0.0 10321521
15:00+23ese46315 0.0 10321578
18:00+19se35510 0.0 1032116
21:00+14ese33605 0.0 103335
20 august, sat
sat2000:00+12ese22645 0.0 103329
03:00+11se22680 0.0 103412
06:00+12ese22670 0.0 103450
09:00+20ese22450 0.0 1034514
12:00+24ese22350 0.0 10331234
15:00+25ene22330 0.0 10311415
18:00+21ene22530 0.0 103030
21:00+16e22600 0.0 103111
21 august, sun
sun2100:00+15ene22653 0.0 103110
03:00+14ene22715 0.0 103113
06:00+15ene22700 0.0 103146
09:00+22e22495 0.0 1031492
12:00+26ene22395 0.0 10291317
15:00+27ene23375 0.0 10281745
18:00+23ne33575 0.0 102757
21:00+18e226611 0.0 102823